FW4331 Weather Reports


Display with metric or nautical units.
time (UTC)temp
F
wind
direction
speed
MPH
gust
MPH
rain 1hr
in
rain 24hr
in
rain mn
in
humidity
%
barometer
mb
20260503203008 62 4 3.0 11.0 0.00 0.00 0.00 16 1013.4
20260503201506 63 350 3.0 12.0 0.00 0.00 0.00 16 1013.5
20260503200001 62 247 2.0 7.0 0.00 0.00 0.00 18 1013.7
20260503194605 62 228 3.0 15.0 0.00 0.00 0.00 18 1013.9
20260503193104 61 300 1.0 12.0 0.00 0.00 0.00 19 1014.2
20260503191604 61 170 2.0 6.0 0.00 0.00 0.00 22 1014.5
20260503190052 61 224 1.0 12.0 0.00 0.00 0.00 21 1014.7
20260503184559 61 76 1.0 11.0 0.00 0.00 0.00 19 1014.8
20260503183046 60 288 3.0 9.0 0.00 0.00 0.00 20 1014.8
20260503181604 60 274 3.0 14.0 0.00 0.00 0.00 21 1015.0
20260503180050 59 233 2.0 9.0 0.00 0.00 0.00 24 1015.1
20260503174545 58 11 1.0 9.0 0.00 0.00 0.00 23 1015.1
20260503173043 58 348 1.0 14.0 0.00 0.00 0.00 24 1015.4
20260503171530 57 127 1.0 11.0 0.00 0.00 0.00 25 1015.5
20260503081544 41 153 0.0 2.0 0.00 0.00 0.00 54 1014.0
20260503071631 40 322 0.0 1.0 0.00 0.00 0.00 55 1013.5
20260503054507 45 11 1.0 4.0 0.00 0.00 0.00 45 1013.1
20260503053100 46 46 1.0 6.0 0.00 0.00 0.00 44 1013.1
20260503051557 46 312 2.0 9.0 0.00 0.00 0.00 43 1013.2
20260503050052 47 359 1.0 7.0 0.00 0.00 0.00 42 1013.2
20260503044550 47 16 1.0 8.0 0.00 0.00 0.00 42 1013.3
20260503043044 47 324 0.0 7.0 0.00 0.00 0.00 42 1013.3
20260503041540 48 53 1.0 12.0 0.00 0.00 0.00 42 1013.3
20260503040137 48 32 6.0 12.0 0.00 0.00 0.00 41 1013.1
20260503034520 48 35 6.0 12.0 0.00 0.00 0.00 41 1013.2
20260503033030 49 359 5.0 17.0 0.00 0.00 0.00 40 1013.0
20260503031514 50 49 2.0 14.0 0.00 0.00 0.00 39 1012.9
20260503030024 50 22 2.0 14.0 0.00 0.00 0.00 38 1012.9
20260503024510 51 27 6.0 17.0 0.00 0.00 0.00 38 1012.9
20260503023007 51 23 6.0 14.0 0.00 0.00 0.00 37 1012.9
20260503021608 52 335 2.0 12.0 0.00 0.00 0.00 37 1012.9
20260503020004 52 317 0.0 5.0 0.00 0.00 0.00 38 1012.9
20260503014502 52 11 0.0 7.0 0.00 0.00 0.00 37 1012.7
20260503013100 52 18 0.0 5.0 0.00 0.00 0.00 37 1012.5
20260503011604 52 19 0.0 5.0 0.00 0.00 0.00 37 1012.4
20260503010108 53 348 0.0 3.0 0.00 0.00 0.00 36 1012.0
20260503004554 53 341 0.0 4.0 0.00 0.00 0.00 36 1011.7
20260503003059 53 346 3.0 7.0 0.00 0.00 0.00 35 1011.5
20260503001550 54 23 1.0 12.0 0.00 0.00 0.00 34 1011.4
20260503000054 54 322 2.0 10.0 0.00 0.00 0.00 34 1011.3
20260502234546 54 349 1.0 8.0 0.00 0.00 0.00 33 1010.8
20260502233043 55 11 2.0 9.0 0.00 0.00 0.00 32 1010.7
20260502231541 55 307 1.0 12.0 0.00 0.00 0.00 32 1010.8
20260502230038 56 56 4.0 9.0 0.00 0.00 0.00 31 1010.6
20260502224535 56 41 3.0 13.0 0.00 0.00 0.00 31 1010.7
20260502223034 56 35 4.0 10.0 0.00 0.00 0.00 28 1010.6
20260502221531 57 319 2.0 7.0 0.00 0.00 0.00 27 1010.6
20260502220031 58 295 0.0 10.0 0.00 0.00 0.00 28 1010.5
20260502214527 57 266 3.0 12.0 0.00 0.00 0.00 28 1010.7
20260502213037 58 57 4.0 10.0 0.00 0.00 0.00 29 1010.5
20260502211526 58 27 2.0 6.0 0.00 0.00 0.00 28 1010.6
20260502210021 58 343 2.0 10.0 0.00 0.00 0.00 26 1010.7
20260502204520 59 343 2.0 8.0 0.00 0.00 0.00 27 1010.6